This demonstration page uses our WeatherBlox Daily Observations layout. Learn more.

Left ArrowRight Arrow

41.55636, -103.73856

Hourly Observations for April 15, 2020

Temp ( °F °C ) Dew Point ( °F °C ) Humidity (%) Winds ( mph kmh ) Pressure ( in mb ) Visibility ( mi km ) Precip ( " mm )
6:58 pm 18:58 Clear 40 4.5 10 -12.2 29 29 NNW 16 26 30.04 1017 10 16 0.00 0.00
7:58 pm 19:58 Mostly Cloudy 35 1.8 14 -10.2 41 41 N 10 17 30.10 1019 10 16 0.00 0.00
8:58 pm 20:58 Mostly Clear 30 -0.9 20 -6.8 65 65 E 6 9 30.19 1022 10 16 0.00 0.00
9:58 pm 21:58 Mostly Clear 30 -1.2 21 -5.9 71 71 ESE 6 9 30.21 1023 10 16 0.00 0.00
10:58 pm 22:58 Mostly Cloudy 30 -1.1 22 -5.4 73 73 SSE 7 11 30.22 1023 10 16 0.00 0.00
11:58 pm 23:58 Cloudy 29 -1.5 22 -5.5 74 74 SSW 3 6 30.22 1023 10 16 0.00 0.00
12:58 am 00:58 Cloudy 30 -1.1 21 -6 70 70 Calm 30.20 1023 10 16 0.00 0.00
1:58 am 01:58 Mostly Cloudy 28 -2.4 22 -5.8 78 78 Calm 30.20 1023 10 16 0.00 0.00
2:58 am 02:58 Mostly Cloudy 29 -1.9 21 -6.3 72 72 Calm 30.17 1022 10 16 0.00 0.00
3:58 am 03:58 Mostly Clear 27 -2.9 21 -5.9 80 80 SSE 7 11 30.18 1022 10 16 0.00 0.00
4:58 am 04:58 Mostly Cloudy 26 -3.3 21 -6.3 80 80 SE 5 7 30.03 1017 10 16 0.00 0.00
5:58 am 05:58 Cloudy 27 -2.8 22 -5.7 81 81 SSE 6 9 30.02 1017 10 16 0.00 0.00
6:58 am 06:58 Mostly Cloudy 27 -2.8 22 -5.4 83 83 Calm 30.02 1017 10 16 0.00 0.00
7:58 am 07:58 Mostly Sunny 31 -0.5 24 -4.4 75 75 SSW 8 13 30.02 1017 10 16 0.00 0.00
8:58 am 08:58 Sunny 36 2.1 23 -5 60 60 Calm 30.01 1016 10 16 0.00 0.00
9:58 am 09:58 Sunny 41 5 22 -5.7 46 46 NW 12 19 30.00 1016 10 16 0.00 0.00
10:58 am 10:58 Sunny 44 6.5 18 -7.9 35 35 NW 15 24 29.98 1015 10 16 0.00 0.00
11:58 am 11:58 Partly Cloudy 46 7.5 18 -7.6 34 34 NNW 16 26 29.98 1015 10 16 0.00 0.00
12:58 pm 12:58 Mostly Sunny 47 8.2 18 -7.6 32 32 NW 9 15 29.98 1015 10 16 0.00 0.00
1:58 pm 13:58 Mostly Sunny 47 8.5 16 -8.7 29 29 NNW 9 15 29.98 1015 10 16 0.00 0.00
2:58 pm 14:58 Sunny 48 9 16 -8.9 27 27 NNW 12 19 29.96 1015 10 16 0.00 0.00
3:58 pm 15:58 Mostly Cloudy 49 9.3 17 -8.1 29 29 N 14 22 29.98 1015 10 16 0.00 0.00
4:58 pm 16:58 Windy with Rain Showers Likely 44 6.9 29 -1.9 54 54 N 25 41 30.03 1017 10 16 0.00 0.00
5:58 pm 17:58 Mostly Cloudy 43 6.1 29 -1.9 57 57 NNE 10 17 30.06 1018 10 16 0.00 0.00

Powered by AerisWeather